Regional Weather Roundup
Issued by NWS

Home | Current Version | Previous Version | Graphics & Text | Print | Product List | Glossary On
Versions: 1 2 3 4 5 6 7 8 9 10 11 12 13 14 15 16 17 18 19 20 21 22 23 24 25 26 27 28 29 30 31 32 33 34 35 36 37 38 39 40 41 42 43 44 45 46 47 48 49 50
000
ASUS45 KSLC 290010
RWRUT

UTAH REGIONAL WEATHER ROUNDUP
NATIONAL WEATHER SERVICE SALT LAKE CITY UT
600 PM MDT TUE JUL 28 2015

UTZ001>011-023>025-290100-

NORTHERN UTAH

CITY           SKY/WX    TMP DP  RH WIND       PRES   REMARKS
BRIGHAM CITY   SUNNY     76  17  10 NW8       30.22F
HILL AFB       SUNNY     75  22  13 N8        30.23F
LOGAN          SUNNY     75  26  16 N6        30.23F
OGDEN          SUNNY     75  21  13 NW7       30.22F
PROVO AIRPORT  SUNNY     75  37  25 NW9       30.20F
SALT LAKE CITY SUNNY     77  26  15 N12       30.20F
VERNAL         SUNNY     81  25  12 SE7       30.15F
WENDOVER       SUNNY     77  23  13 E7        30.21S
HEBER CITY     SUNNY     79  23  12 W6        30.22F
WEST JORDAN    SUNNY     73  30  20 NW12G18   30.22F

$$

UTZ012>022-026-027-290100-

SOUTHERN/CENTRAL UTAH

CITY           SKY/WX    TMP DP  RH WIND       PRES   REMARKS
BLANDING       SUNNY     87  26  10 SW8       30.20F
BRYCE CANYON   SUNNY     80  30  16 NW12G20   30.28S
CEDAR CITY     SUNNY     85  22  10 NE8       30.15F
DELTA          SUNNY     82  24  12 NW8       30.17S
HANKSVILLE     SUNNY     91  30  11 CALM      30.05F
MILFORD        SUNNY     86  28  12 NE16G22   30.14F
MOAB/CYNLANDS  SUNNY     89  26  10 SW7       30.05F
PRICE          SUNNY     85  24  11 W21G26    30.18F
ST GEORGE      CLEAR     97  34  11 CALM      29.94F HX  91

$$

REGIONAL REPORTS     COLORADO/ARIZONA

CITY           SKY/WX    TMP DP  RH WIND       PRES   REMARKS
CRAIG, CO      SUNNY     81  25  12 VRB3      30.22F
GRAND JUNCTION SUNNY     89  24   9 NW15G23   30.07F
RIFLE          SUNNY     88  21   8 W14       30.12S
MONTROSE       SUNNY     87  34  15 N10       30.14F
CORTEZ         SUNNY     87  23   9 W10G21    30.13F
PAGE, AZ       SUNNY     94  24   8 CALM      30.00F
GRAND CANYON   SUNNY     85  19   9 VRB6      30.22F
KINGMAN        SUNNY     97  26   8 SW14G20   29.97F HX  91
FLAGSTAFF      SUNNY     81  36  19 VRB6      30.24F

$$

REGIONAL REPORTS    NEVADA/IDAHO/WYOMING

CITY           SKY/WX    TMP DP  RH WIND       PRES   REMARKS
LAS VEGAS, NV  SUNNY    101  26   7 E5        29.82F HX  94
ELY            SUNNY     82  24  12 NE12      30.21S
ELKO           SUNNY     80  11   7 CALM      30.20F
POCATELLO, ID  SUNNY     72  25  17 E7        30.28S
BURLEY         SUNNY     73  28  18 N7        30.24S
EVANSTON, WY   SUNNY     70  10  10 W9G17     30.33S
ROCK SPRINGS   SUNNY     69  14  12 W14G23    30.30S
KEMMERER       SUNNY     68  19  15 W9G21     30.35S

$$


USA.gov is the U.S. government's official web portal to all federal, state and local government web resources and services.